IBLACK343 Weather Reports


time (UTC)temp
C
wind
direction
speed
KPH
gust
KPH
rain 1hr
cm
rain 24hr
cm
rain mn
cm
humidity
%
barometer
mb
20260507142505 11 275 8.0 22.5 0.00 0.00 0.00 51 1011.8
20260507142004 11 324 8.0 22.5 0.00 0.00 0.00 51 1011.7
20260507141513 11 274 8.0 17.7 0.00 0.00 0.00 51 1011.7
20260507141003 11 261 9.7 19.3 0.00 0.00 0.00 51 1011.6
20260507140507 11 276 9.7 20.9 0.00 0.00 0.00 51 1011.6
20260507140028 11 254 11.3 20.9 0.00 0.00 0.00 51 1011.5
20260507135506 11 305 8.0 19.3 0.00 0.00 0.00 52 1011.5
20260507135007 11 265 6.4 22.5 0.00 0.00 0.00 52 1011.4
20260507134525 11 288 8.0 22.5 0.00 0.00 0.00 51 1011.4
20260507134006 11 280 11.3 20.9 0.00 0.00 0.00 52 1011.1
20260507133508 11 281 9.7 22.5 0.00 0.00 0.00 53 1011.1
20260507133028 10 280 6.4 22.5 0.00 0.00 0.00 53 1011.1
20260507132507 10 278 9.7 22.5 0.00 0.00 0.00 54 1010.9
20260507132011 10 270 8.0 22.5 0.00 0.00 0.00 54 1010.8
20260507131511 10 284 8.0 20.9 0.00 0.00 0.00 55 1010.8
20260507131005 10 288 9.7 20.9 0.00 0.00 0.00 55 1010.8
20260507130507 10 257 9.7 19.3 0.00 0.00 0.00 56 1010.8
20260507130015 10 266 8.0 19.3 0.00 0.00 0.00 56 1010.7
20260507125506 9 277 8.0 14.5 0.00 0.00 0.00 57 1010.8
20260507125006 9 267 6.4 11.3 0.00 0.00 0.00 58 1010.7
20260507124524 9 271 4.8 11.3 0.00 0.00 0.00 58 1010.7
20260507124008 9 268 3.2 12.9 0.00 0.00 0.00 59 1010.8
20260507123508 8 259 6.4 12.9 0.00 0.00 0.00 59 1010.8
20260507123026 8 276 4.8 12.9 0.00 0.00 0.00 60 1010.8
20260507122509 8 276 8.0 12.9 0.00 0.00 0.00 61 1010.9
20260507122013 8 234 1.6 9.7 0.00 0.00 0.00 63 1010.8
20260507121527 8 266 3.2 9.7 0.00 0.00 0.00 63 1010.7
20260507121007 8 243 3.2 11.3 0.00 0.00 0.00 63 1010.7
20260507120508 8 252 3.2 12.9 0.00 0.00 0.00 63 1010.6
20260507120003 8 293 6.4 12.9 0.00 0.00 0.00 63 1010.6
20260507115503 8 269 6.4 12.9 0.00 0.00 0.00 64 1010.4
20260507115001 8 259 4.8 14.5 0.00 0.00 0.00 65 1010.4
20260507114504 8 270 4.8 14.5 0.00 0.00 0.00 66 1010.5
20260507114004 7 264 6.4 12.9 0.00 0.00 0.00 68 1010.6
20260507113503 7 258 4.8 8.0 0.00 0.00 0.00 71 1010.5
20260507113004 7 258 1.6 6.4 0.00 0.00 0.00 73 1010.5
20260507112503 6 250 1.6 3.2 0.00 0.00 0.00 75 1010.6
20260507112003 6 204 0.0 1.6 0.00 0.00 0.00 75 1010.5
20260507111511 6 203 0.0 1.6 0.00 0.00 0.00 75 1010.4
20260507111003 6 199 0.0 1.6 0.00 0.00 0.00 75 1010.4
20260507110503 6 194 0.0 0.0 0.00 0.00 0.00 75 1010.4
20260507110011 6 194 0.0 1.6 0.00 0.00 0.00 73 1010.4
20260507105503 7 194 0.0 1.6 0.00 0.00 0.00 73 1010.4
20260507105003 7 203 0.0 1.6 0.00 0.00 0.00 73 1010.4
20260507104503 7 203 0.0 1.6 0.00 0.00 0.00 72 1010.3
20260507104003 7 244 0.0 1.6 0.00 0.00 0.00 72 1010.4
20260507103503 7 249 1.6 1.6 0.00 0.00 0.00 73 1010.4
20260507103005 7 247 0.0 1.6 0.00 0.00 0.00 72 1010.3
20260507102504 7 247 0.0 1.6 0.00 0.00 0.00 72 1010.3
20260507102006 7 246 0.0 1.6 0.00 0.00 0.00 72 1010.3
20260507101504 7 248 0.0 1.6 0.00 0.00 0.00 73 1010.4
20260507101002 7 248 0.0 1.6 0.00 0.00 0.00 73 1010.3
20260507100505 7 248 0.0 1.6 0.00 0.00 0.00 72 1010.3
20260507100011 7 217 0.0 1.6 0.00 0.00 0.00 73 1010.3
20260507095503 7 217 0.0 1.6 0.00 0.00 0.00 72 1010.3
20260507095004 7 235 0.0 1.6 0.00 0.00 0.00 72 1010.3
20260507094515 7 235 0.0 1.6 0.00 0.00 0.00 72 1010.3
20260507094004 7 235 1.6 1.6 0.00 0.00 0.00 73 1010.2
20260507093503 7 160 0.0 0.0 0.00 0.00 0.00 72 1010.0
20260507093017 7 160 0.0 0.0 0.00 0.00 0.00 73 1010.0
20260507092502 7 115 0.0 0.0 0.00 0.00 0.00 72 1009.9
20260507092001 7 116 0.0 0.0 0.00 0.00 0.00 72 1009.9
20260507091504 8 115 0.0 0.0 0.00 0.00 0.00 71 1009.9
20260507091003 8 116 0.0 1.6 0.00 0.00 0.00 70 1009.9
20260507090503 8 90 0.0 1.6 0.00 0.00 0.00 69 1009.9
20260507090006 8 90 0.0 1.6 0.00 0.00 0.00 68 1009.9
20260507085503 8 90 0.0 1.6 0.00 0.00 0.00 68 1009.9
20260507085007 8 56 0.0 3.2 0.00 0.00 0.00 69 1009.9
20260507084529 8 56 0.0 3.2 0.00 0.00 0.00 69 1009.9
20260507084003 8 70 0.0 1.6 0.00 0.00 0.00 69 1009.9
20260507083509 8 304 0.0 1.6 0.00 0.00 0.00 69 1009.9
20260507083014 8 303 0.0 3.2 0.00 0.00 0.00 69 1009.9
20260507082504 8 136 0.0 3.2 0.00 0.00 0.00 70 1009.9
20260507082003 8 226 0.0 0.0 0.00 0.00 0.00 69 1010.0
20260507081519 9 58 0.0 0.0 0.00 0.00 0.00 68 1009.9
20260507081007 9 58 0.0 1.6 0.00 0.00 0.00 68 1009.9
20260507080502 9 58 0.0 4.8 0.00 0.00 0.00 68 1009.8
20260507080005 10 352 0.0 4.8 0.00 0.00 0.00 67 1009.9
20260507075503 10 32 0.0 9.7 0.00 0.00 0.00 67 1009.9
20260507075005 10 245 0.0 11.3 0.00 0.00 0.00 67 1009.9
20260507074508 10 262 4.8 11.3 0.00 0.00 0.00 67 1010.0
20260507074003 10 243 3.2 8.0 0.00 0.00 0.00 67 1009.9
20260507073508 10 291 3.2 8.0 0.00 0.00 0.00 67 1009.9
20260507073009 10 237 1.6 8.0 0.00 0.00 0.00 66 1009.9
20260507072506 10 274 3.2 6.4 0.00 0.00 0.00 66 1009.8
20260507072006 10 293 1.6 6.4 0.00 0.00 0.00 65 1009.8
20260507071521 10 219 0.0 4.8 0.00 0.00 0.00 65 1009.6
20260507071003 10 238 1.6 4.8 0.00 0.00 0.00 65 1009.6
20260507070505 10 237 0.0 3.2 0.00 0.00 0.00 64 1009.5
20260507070018 11 239 1.6 3.2 0.00 0.00 0.00 64 1009.6
20260507065505 11 218 0.0 1.6 0.00 0.00 0.00 64 1009.5
20260507065007 11 254 0.0 1.6 0.00 0.00 0.00 64 1009.5
20260507064506 11 254 0.0 4.8 0.00 0.00 0.00 64 1009.4
20260507064004 11 254 0.0 4.8 0.00 0.00 0.00 64 1009.4
20260507063503 10 221 0.0 1.6 0.00 0.00 0.00 65 1009.4
20260507063009 10 207 0.0 1.6 0.00 0.00 0.00 66 1009.4
20260507062504 10 207 0.0 1.6 0.00 0.00 0.00 65 1009.4
20260507062005 10 123 0.0 1.6 0.00 0.00 0.00 65 1009.3
20260507061512 10 123 0.0 1.6 0.00 0.00 0.00 64 1009.2
20260507061004 11 123 0.0 1.6 0.00 0.00 0.00 64 1009.3
20260507060505 11 147 0.0 1.6 0.00 0.00 0.00 63 1009.2
20260507060019 11 147 0.0 1.6 0.00 0.00 0.00 63 1009.2
20260507055505 11 146 0.0 1.6 0.00 0.00 0.00 62 1009.2
20260507055006 11 198 0.0 1.6 0.00 0.00 0.00 62 1009.3
20260507054519 11 198 0.0 1.6 0.00 0.00 0.00 61 1009.4
20260507054010 12 198 0.0 4.8 0.00 0.00 0.00 61 1009.3
20260507053508 12 197 0.0 6.4 0.00 0.00 0.00 60 1009.2
20260507053026 12 241 3.2 6.4 0.00 0.00 0.00 59 1009.2
20260507052504 12 218 1.6 8.0 0.00 0.00 0.00 58 1009.1
20260507052004 12 219 3.2 8.0 0.00 0.00 0.00 57 1009.2
20260507051510 12 217 1.6 6.4 0.00 0.00 0.00 57 1009.4
20260507051004 12 226 1.6 9.7 0.00 0.00 0.00 57 1009.6
20260507050503 13 255 6.4 9.7 0.00 0.00 0.00 57 1009.7
20260507050035 13 240 1.6 4.8 0.00 0.00 0.00 56 1009.6
20260507045504 13 252 1.6 4.8 0.00 0.00 0.00 56 1009.5
20260507045007 13 231 0.0 4.8 0.00 0.00 0.00 56 1009.4
20260507044517 13 274 1.6 8.0 0.00 0.00 0.00 56 1009.3
20260507044006 13 224 3.2 9.7 0.00 0.00 0.00 56 1009.4
20260507043506 13 281 4.8 9.7 0.00 0.00 0.00 55 1009.4
20260507043022 13 247 3.2 9.7 0.00 0.00 0.00 54 1009.3
20260507042507 13 274 3.2 11.3 0.00 0.00 0.00 53 1009.3
20260507042007 13 257 4.8 12.9 0.00 0.00 0.00 53 1009.3
20260507041521 13 261 8.0 12.9 0.00 0.00 0.00 53 1009.3
20260507041010 13 257 3.2 6.4 0.00 0.00 0.00 53 1009.1
20260507040504 13 290 1.6 6.4 0.00 0.00 0.00 53 1009.0
20260507040007 13 271 1.6 11.3 0.00 0.00 0.00 53 1009.0
20260507035503 13 286 4.8 12.9 0.00 0.00 0.00 53 1009.1
20260507035004 13 275 6.4 12.9 0.00 0.00 0.00 53 1009.2
20260507034513 13 266 8.0 12.9 0.00 0.00 0.00 53 1009.2
20260507034004 14 251 6.4 14.5 0.00 0.00 0.00 52 1009.1
20260507033507 14 233 8.0 20.9 0.00 0.00 0.00 51 1009.0
20260507033017 14 275 8.0 20.9 0.00 0.00 0.00 50 1008.9
20260507032506 15 263 6.4 22.5 0.00 0.00 0.00 48 1008.9
20260507032008 15 284 8.0 22.5 0.00 0.00 0.00 46 1009.0
20260507031522 15 285 12.9 22.5 0.00 0.00 0.00 45 1008.8
20260507031009 15 304 1.6 4.8 0.00 0.00 0.00 42 1008.6
20260507030509 15 322 1.6 9.7 0.00 0.00 0.00 42 1008.5
20260507030024 16 318 1.6 11.3 0.00 0.00 0.00 42 1008.3
20260507025509 16 316 1.6 11.3 0.00 0.00 0.00 42 1008.1
20260507025007 16 328 1.6 9.7 0.00 0.00 0.00 41 1007.9
20260507024510 16 56 3.2 9.7 0.00 0.00 0.00 40 1007.8
20260507024008 16 32 3.2 8.0 0.00 0.00 0.00 42 1007.8
20260507023504 16 66 1.6 22.5 0.00 0.00 0.00 41 1007.7
20260507023011 16 192 4.8 22.5 0.00 0.00 0.00 41 1007.8
20260507022505 16 214 4.8 12.9 0.00 0.00 0.00 40 1008.1
20260507022010 16 311 0.0 6.4 0.00 0.00 0.00 39 1007.9
20260507021517 16 264 1.6 8.0 0.00 0.00 0.00 38 1007.7
20260507021007 16 238 3.2 8.0 0.00 0.00 0.00 37 1007.4
20260507020509 17 280 3.2 22.5 0.00 0.00 0.00 37 1007.4
20260507020004 17 320 3.2 22.5 0.00 0.00 0.00 39 1007.5
20260507015503 17 274 3.2 22.5 0.00 0.00 0.00 39 1007.5
20260507015007 17 61 4.8 22.5 0.00 0.00 0.00 34 1007.5
20260507014507 17 297 1.6 6.4 0.00 0.00 0.00 32 1007.7
20260507014003 17 55 1.6 4.8 0.00 0.00 0.00 32 1007.5
20260507013504 17 65 0.0 4.8 0.00 0.00 0.00 31 1007.3
20260507013013 17 69 1.6 6.4 0.00 0.00 0.00 32 1007.3
20260507012502 17 114 1.6 6.4 0.00 0.00 0.00 32 1007.3
20260507012009 17 27 1.6 9.7 0.00 0.00 0.00 33 1007.3
20260507011518 17 8 1.6 11.3 0.00 0.00 0.00 34 1007.4
20260507011007 18 321 3.2 19.3 0.00 0.00 0.00 32 1007.5
20260507010504 18 280 8.0 19.3 0.00 0.00 0.00 31 1007.5
20260507010004 18 239 1.6 4.8 0.00 0.00 0.00 30 1007.5
20260507005503 18 266 0.0 1.6 0.00 0.00 0.00 29 1007.4
20260507005003 18 267 0.0 3.2 0.00 0.00 0.00 30 1007.3
20260507004505 18 252 1.6 3.2 0.00 0.00 0.00 29 1007.1
20260507004003 18 238 1.6 3.2 0.00 0.00 0.00 29 1007.0
20260507003503 18 164 0.0 8.0 0.00 0.00 0.00 29 1007.0
20260507003006 18 191 1.6 8.0 0.00 0.00 0.00 28 1006.9
20260507002504 18 133 1.6 27.4 0.00 0.00 0.00 29 1006.9
20260507002006 18 110 12.9 27.4 0.00 0.00 0.00 31 1006.9
20260507001515 18 68 3.2 6.4 0.00 0.00 0.00 28 1007.0
20260507001004 18 63 1.6 4.8 0.00 0.00 0.00 27 1007.2
20260507000505 18 300 1.6 4.8 0.00 0.00 0.00 27 1007.1
20260507000022 18 311 0.0 3.2 0.00 0.00 0.00 27 1007.1
20260506235509 18 267 1.6 6.4 0.00 0.00 0.00 26 1007.1
20260506235003 18 326 1.6 6.4 0.00 0.00 0.00 27 1007.1
20260506234505 19 347 0.0 4.8 0.00 0.00 0.00 26 1007.0
20260506234002 19 56 3.2 4.8 0.00 0.00 0.00 26 1006.8
20260506233504 19 37 1.6 6.4 0.00 0.00 0.00 26 1006.8
20260506233007 19 356 1.6 8.0 0.00 0.00 0.00 26 1006.8
20260506232504 19 84 1.6 8.0 0.00 0.00 0.00 25 1006.6
20260506232003 19 94 0.0 9.7 0.00 0.00 0.00 27 1006.6
20260506231513 19 60 1.6 9.7 0.00 0.00 0.00 25 1006.6
20260506231004 20 16 1.6 8.0 0.00 0.00 0.00 27 1006.5
20260506230504 19 46 4.8 12.9 0.00 0.00 0.00 26 1006.6
20260506230014 19 36 4.8 12.9 0.00 0.00 0.00 26 1006.5
20260506225504 19 23 6.4 12.9 0.00 0.00 0.00 26 1006.6
20260506225008 19 38 1.6 9.7 0.00 0.00 0.00 26 1006.8
20260506224519 19 333 4.8 9.7 0.00 0.00 0.00 26 1006.9
20260506224008 19 359 1.6 11.3 0.00 0.00 0.00 26 1006.8
20260506223508 19 27 3.2 11.3 0.00 0.00 0.00 26 1006.8
20260506223002 19 44 3.2 11.3 0.00 0.00 0.00 26 1006.9
20260506222504 20 13 3.2 11.3 0.00 0.00 0.00 26 1007.0
20260506222004 20 88 1.6 9.7 0.00 0.00 0.00 27 1006.9
20260506221508 20 322 4.8 9.7 0.00 0.00 0.00 26 1007.0
20260506221003 19 46 1.6 9.7 0.00 0.00 0.00 26 1007.0
20260506220504 20 108 1.6 8.0 0.00 0.00 0.00 26 1007.0
20260506220014 20 252 1.6 6.4 0.00 0.00 0.00 27 1007.1
20260506215503 19 216 1.6 9.7 0.00 0.00 0.00 27 1007.1
20260506215005 19 303 1.6 11.3 0.00 0.00 0.00 26 1007.1
20260506214517 19 47 6.4 11.3 0.00 0.00 0.00 26 1007.1
20260506214005 19 32 3.2 8.0 0.00 0.00 0.00 26 1007.1
20260506213509 19 342 1.6 6.4 0.00 0.00 0.00 27 1007.3
20260506213022 19 18 3.2 8.0 0.00 0.00 0.00 26 1007.4
20260506212506 19 11 3.2 9.7 0.00 0.00 0.00 27 1007.5
20260506212010 19 306 3.2 12.9 0.00 0.00 0.00 26 1007.5
20260506211538 19 313 4.8 12.9 0.00 0.00 0.00 26 1007.5
20260506211004 19 23 3.2 9.7 0.00 0.00 0.00 27 1007.7
20260506210504 19 51 3.2 8.0 0.00 0.00 0.00 26 1007.8
20260506210010 19 22 1.6 8.0 0.00 0.00 0.00 27 1007.8
20260506205504 18 354 1.6 11.3 0.00 0.00 0.00 27 1007.8
20260506205005 19 62 4.8 11.3 0.00 0.00 0.00 26 1007.9
20260506204516 18 30 6.4 11.3 0.00 0.00 0.00 26 1007.9
20260506204004 18 30 6.4 9.7 0.00 0.00 0.00 27 1007.9
20260506203507 18 105 6.4 9.7 0.00 0.00 0.00 27 1007.9
20260506203019 18 101 4.8 9.7 0.00 0.00 0.00 27 1007.8
20260506202507 18 82 1.6 9.7 0.00 0.00 0.00 27 1007.9
20260506202009 18 50 6.4 9.7 0.00 0.00 0.00 27 1008.0
20260506201534 18 296 1.6 8.0 0.00 0.00 0.00 27 1007.9
20260506201009 18 168 1.6 9.7 0.00 0.00 0.00 28 1007.9
20260506200508 18 233 6.4 11.3 0.00 0.00 0.00 26 1008.0
20260506200031 18 125 3.2 11.3 0.00 0.00 0.00 28 1008.0
20260506195511 18 108 3.2 17.7 0.00 0.00 0.00 28 1008.0
20260506195004 18 76 6.4 17.7 0.00 0.00 0.00 27 1008.0
20260506194509 18 103 6.4 12.9 0.00 0.00 0.00 27 1008.1
20260506194008 18 125 4.8 12.9 0.00 0.00 0.00 28 1008.1
20260506193503 18 84 4.8 12.9 0.00 0.00 0.00 28 1008.2
20260506193027 18 99 3.2 12.9 0.00 0.00 0.00 28 1008.1
20260506192507 17 132 6.4 17.7 0.00 0.00 0.00 27 1008.2
20260506192008 17 191 3.2 17.7 0.00 0.00 0.00 29 1008.2
20260506191519 17 124 6.4 17.7 0.00 0.00 0.00 29 1008.3
20260506191009 17 143 4.8 16.1 0.00 0.00 0.00 29 1008.5
20260506190508 17 207 3.2 16.1 0.00 0.00 0.00 29 1008.5
20260506190026 17 115 3.2 17.7 0.00 0.00 0.00 29 1008.6
20260506185508 16 116 1.6 17.7 0.00 0.00 0.00 29 1008.6
20260506185011 16 111 8.0 16.1 0.00 0.00 0.00 29 1008.7
20260506184531 16 122 6.4 16.1 0.00 0.00 0.00 29 1008.8
20260506184010 16 103 6.4 12.9 0.00 0.00 0.00 29 1008.9
20260506183510 16 180 6.4 12.9 0.00 0.00 0.00 30 1009.0
20260506183010 16 72 4.8 19.3 0.00 0.00 0.00 30 1009.0
20260506182506 16 115 9.7 19.3 0.00 0.00 0.00 30 1009.1
20260506182011 16 134 3.2 17.7 0.00 0.00 0.00 32 1009.1
20260506181534 15 170 8.0 17.7 0.00 0.00 0.00 31 1009.2
20260506181007 15 120 4.8 20.9 0.00 0.00 0.00 32 1009.2
20260506180508 15 135 8.0 20.9 0.00 0.00 0.00 33 1009.4
20260506180025 15 219 8.0 20.9 0.00 0.00 0.00 33 1009.4
20260506175514 14 188 6.4 20.9 0.00 0.00 0.00 33 1009.5
20260506175008 14 39 8.0 17.7 0.00 0.00 0.00 34 1009.6
20260506174524 13 134 8.0 17.7 0.00 0.00 0.00 33 1009.7
20260506174014 13 101 8.0 17.7 0.00 0.00 0.00 34 1009.7
20260506173512 13 141 6.4 14.5 0.00 0.00 0.00 34 1009.8
20260506173047 13 212 6.4 14.5 0.00 0.00 0.00 34 1009.8
20260506172507 13 118 4.8 14.5 0.00 0.00 0.00 36 1009.9
20260506172010 13 91 8.0 14.5 0.00 0.00 0.00 34 1010.0
20260506171538 13 156 6.4 17.7 0.00 0.00 0.00 36 1010.0
20260506171007 12 145 8.0 17.7 0.00 0.00 0.00 36 1010.1
20260506170508 12 145 9.7 17.7 0.00 0.00 0.00 37 1010.3
20260506170008 12 157 6.4 14.5 0.00 0.00 0.00 37 1010.4
20260506165506 11 143 6.4 12.9 0.00 0.00 0.00 37 1010.5
20260506165003 11 126 3.2 17.7 0.00 0.00 0.00 39 1010.5
20260506164507 11 134 8.0 17.7 0.00 0.00 0.00 39 1010.6
20260506164002 11 123 6.4 14.5 0.00 0.00 0.00 38 1010.6
20260506163504 10 134 4.8 16.1 0.00 0.00 0.00 40 1010.6
20260506163015 10 68 6.4 16.1 0.00 0.00 0.00 41 1010.7
20260506162503 10 99 6.4 14.5 0.00 0.00 0.00 40 1010.7
20260506162006 10 98 4.8 12.9 0.00 0.00 0.00 41 1010.8
20260506161510 9 313 4.8 12.9 0.00 0.00 0.00 42 1010.8
20260506161006 9 115 3.2 11.3 0.00 0.00 0.00 42 1010.8
20260506160503 8 163 3.2 11.3 0.00 0.00 0.00 43 1010.9
20260506160010 8 77 4.8 11.3 0.00 0.00 0.00 42 1010.9
20260506155504 8 117 6.4 11.3 0.00 0.00 0.00 42 1011.0
20260506155003 8 153 4.8 12.9 0.00 0.00 0.00 44 1011.0
20260506154508 8 156 6.4 12.9 0.00 0.00 0.00 43 1011.1
20260506154003 7 113 6.4 12.9 0.00 0.00 0.00 44 1011.2
20260506153504 7 200 4.8 12.9 0.00 0.00 0.00 45 1011.3
20260506153004 7 138 6.4 12.9 0.00 0.00 0.00 44 1011.4
20260506152506 7 139 8.0 12.9 0.00 0.00 0.00 44 1011.4
20260506152003 6 127 4.8 12.9 0.00 0.00 0.00 46 1011.4
20260506151509 6 123 4.8 12.9 0.00 0.00 0.00 46 1011.5
20260506151003 6 111 8.0 12.9 0.00 0.00 0.00 46 1011.4
20260506150503 6 101 6.4 16.1 0.00 0.00 0.00 47 1011.4
20260506150016 5 139 8.0 16.1 0.00 0.00 0.00 47 1011.5
20260506145503 5 136 8.0 12.9 0.00 0.00 0.00 46 1011.5
20260506145008 5 165 6.4 12.9 0.00 0.00 0.00 46 1011.6
20260506144516 5 41 4.8 12.9 0.00 0.00 0.00 48 1011.7
20260506144004 5 118 4.8 16.1 0.00 0.00 0.00 48 1011.7
20260506143504 5 120 8.0 16.1 0.00 0.00 0.00 47 1011.8
20260506143022 5 132 6.4 16.1 0.00 0.00 0.00 48 1011.8